CW0783 Weather Reports


time (UTC)temp
F
wind
direction
speed
knots
gust
knots
rain 1hr
in
rain 24hr
in
rain mn
in
humidity
%
barometer
mb
20260503203759 59 205 5.2 12.2 0.00 0.12 0.12 55 1010.7
20260503203257 58 171 5.2 7.0 0.00 0.12 0.12 71 1010.8
20260503202754 57 209 5.2 7.8 0.00 0.12 0.12 72 1010.6
20260503202252 57 184 3.5 8.7 0.00 0.12 0.12 72 1011.0
20260503201750 57 201 5.2 7.8 0.00 0.12 0.12 69 1011.1
20260503201247 56 204 3.5 5.2 0.00 0.12 0.12 72 1011.1
20260503200743 55 184 3.5 6.1 0.00 0.12 0.12 73 1011.6
20260503200239 54 185 3.5 5.2 0.00 0.12 0.12 74 1011.5
20260503195736 53 151 5.2 6.1 0.00 0.12 0.12 76 1011.7
20260503195233 53 113 1.7 3.5 0.00 0.12 0.12 78 1011.8
20260503194731 52 193 5.2 6.1 0.00 0.12 0.12 81 1011.9
20260503194226 51 196 0.9 1.7 0.00 0.12 0.12 83 1012.1
20260503193723 51 131 0.9 5.2 0.00 0.12 0.12 83 1012.1
20260503193219 50 167 1.7 5.2 0.00 0.12 0.12 83 1012.3
20260503192715 50 162 6.1 7.0 0.00 0.12 0.12 84 1012.4
20260503192210 49 196 3.5 5.2 0.00 0.12 0.12 86 1012.4
20260503191707 49 190 1.7 2.6 0.00 0.12 0.12 88 1012.4
20260503191204 48 174 2.6 7.8 0.00 0.12 0.12 87 1012.6
20260503190701 48 217 3.5 6.1 0.00 0.12 0.12 89 1012.5
20260503190157 48 208 3.5 5.2 0.05 0.12 0.12 89 1012.7
20260503185654 48 215 1.7 3.5 0.12 0.12 0.12 89 1012.8
20260503185149 48 172 3.5 5.2 0.07 0.11 0.11 89 1013.3
20260503184645 48 197 1.7 2.6 0.05 0.10 0.10 88 1013.9
20260503184142 48 212 1.7 2.6 0.12 0.10 0.10 87 1014.2
20260503183638 48 175 0.9 2.6 0.12 0.09 0.09 86 1014.4
20260503183136 48 213 2.6 6.1 0.24 0.08 0.08 85 1014.5
20260503182633 49 221 5.2 7.8 0.24 0.07 0.07 84 1014.5
20260503182132 49 184 5.2 7.0 0.05 0.04 0.04 84 1014.9
20260503181628 49 221 2.6 3.5 0.00 0.03 0.03 84 1014.8
20260503181125 48 242 2.6 3.5 0.00 0.03 0.03 85 1015.0
20260503180622 48 211 2.6 3.5 0.00 0.03 0.03 85 1014.9
20260503180120 48 219 4.3 6.1 0.00 0.03 0.03 84 1015.1
20260503175616 48 210 3.5 5.2 0.07 0.03 0.03 85 1015.2
20260503175114 48 223 1.7 5.2 0.07 0.03 0.03 84 1015.2
20260503174610 48 207 2.6 3.5 0.05 0.02 0.02 84 1014.9
20260503174107 49 190 1.7 2.6 0.05 0.02 0.02 83 1015.6
20260503173602 49 209 3.5 7.0 0.07 0.01 0.01 80 1015.4
20260503173059 50 220 3.5 5.2 0.07 0.01 0.01 78 1015.7
20260503172556 50 244 2.6 8.7 0.00 0.00 0.00 74 1015.8
20260503172053 51 182 3.5 6.1 0.00 0.00 0.00 72 1015.6
20260503171549 52 207 2.6 8.7 0.00 0.00 0.00 69 1015.4
20260503171047 52 231 4.3 5.2 0.00 0.00 0.00 68 1015.6
20260503170543 52 214 7.0 12.2 0.00 0.00 0.00 67 1015.4
20260503150936 55 183 3.5 7.8 0.00 0.00 0.00 54 1015.9
20260503150432 55 209 7.0 7.8 0.00 0.00 0.00 55 1015.9
20260503131325 49 222 5.2 6.1 0.00 0.00 0.00 61 1016.7
20260503130823 49 229 3.5 6.1 0.00 0.00 0.00 61 1016.7
20260503130320 49 230 3.5 3.5 0.00 0.00 0.00 61 1016.9
20260503110714 41 219 1.7 3.5 0.00 0.00 0.00 66 1016.7
20260503110211 41 221 1.7 5.2 0.00 0.00 0.00 67 1016.7
20260503100137 42 205 1.7 2.6 0.00 0.00 0.00 63 1016.3
20260503081527 42 223 1.7 3.5 0.00 0.00 0.00 65 1016.8
20260503081024 42 215 1.7 2.6 0.00 0.00 0.00 64 1016.7
20260503080520 42 203 2.6 2.6 0.00 0.00 0.00 64 1016.6
20260503072454 42 237 1.7 2.6 0.00 0.00 0.00 66 1016.7
20260503071951 42 255 2.6 2.6 0.00 0.00 0.00 66 1016.9
20260503071448 42 230 0.9 2.6 0.00 0.00 0.00 66 1017.0
20260503070944 42 232 0.9 2.6 0.00 0.00 0.00 66 1017.0
20260503070441 42 232 1.7 2.6 0.00 0.00 0.00 66 1017.1
20260503054900 43 234 1.7 1.7 0.00 0.00 0.00 65 1017.8
20260503054356 43 211 0.9 1.7 0.00 0.00 0.00 65 1017.7
20260503053854 43 217 0.9 1.7 0.00 0.00 0.00 65 1017.9
20260503053352 43 232 1.7 3.5 0.00 0.00 0.00 64 1017.8
20260503052848 43 211 2.6 2.6 0.00 0.00 0.00 64 1018.0
20260503052345 43 246 0.9 2.6 0.00 0.00 0.00 64 1017.6
20260503051841 43 220 1.7 2.6 0.00 0.00 0.00 64 1017.9
20260503051337 43 219 0.9 2.6 0.00 0.00 0.00 63 1017.9
20260503050835 43 223 0.9 1.7 0.00 0.00 0.00 63 1017.9
20260503050331 43 209 1.7 1.7 0.00 0.00 0.00 63 1018.0
20260503045828 43 207 0.9 1.7 0.00 0.00 0.00 63 1018.0
20260503045326 43 204 1.7 1.7 0.00 0.00 0.00 62 1018.0
20260503044822 44 219 1.7 2.6 0.00 0.00 0.00 62 1017.9
20260503044319 44 194 0.9 1.7 0.00 0.00 0.00 62 1018.0
20260503043816 44 209 0.0 0.0 0.00 0.00 0.00 62 1018.0
20260503043313 44 208 0.9 1.7 0.00 0.00 0.00 61 1018.0
20260503042809 44 213 0.9 1.7 0.00 0.00 0.00 62 1018.1
20260503042306 44 207 0.0 0.0 0.00 0.00 0.00 61 1018.1
20260503041802 44 207 0.9 1.7 0.00 0.00 0.00 61 1018.3
20260503041300 44 217 0.9 0.9 0.00 0.00 0.00 61 1018.2
20260503040757 44 206 0.0 0.9 0.00 0.00 0.00 62 1018.2
20260503040255 44 197 0.9 1.7 0.00 0.00 0.00 62 1018.2
20260503035751 44 208 0.0 0.0 0.00 0.00 0.00 62 1018.2
20260503035249 43 203 0.0 0.0 0.00 0.00 0.00 64 1018.2
20260503034746 44 206 0.0 0.0 0.00 0.00 0.00 62 1018.1
20260503034243 43 193 0.0 0.0 0.00 0.00 0.00 63 1018.2
20260503033741 43 196 0.0 0.0 0.00 0.00 0.00 64 1018.1
20260503033238 43 204 0.0 0.0 0.00 0.00 0.00 65 1018.1
20260503032736 43 186 0.0 0.0 0.00 0.00 0.00 65 1018.2
20260503032234 42 191 0.0 0.0 0.00 0.00 0.00 68 1018.2
20260503031731 41 180 0.0 0.0 0.00 0.00 0.00 69 1018.3
20260503031229 41 168 0.0 0.0 0.00 0.00 0.00 73 1018.2
20260503030725 41 164 0.0 0.0 0.00 0.00 0.00 73 1018.3
20260503030221 41 155 0.0 0.0 0.00 0.00 0.00 72 1018.3
20260503025718 40 151 0.0 0.0 0.00 0.00 0.00 70 1018.2
20260503025216 41 147 0.0 0.0 0.00 0.00 0.00 70 1018.4
20260503024712 41 148 0.0 0.0 0.00 0.00 0.00 69 1018.4
20260503024210 41 148 0.0 0.0 0.00 0.00 0.00 67 1018.4
20260503023707 41 146 0.0 0.0 0.00 0.00 0.00 68 1018.2
20260503023203 41 154 0.0 0.0 0.00 0.00 0.00 70 1018.3
20260503022659 41 154 0.0 0.0 0.00 0.00 0.00 69 1018.3
20260503022159 41 154 0.0 0.0 0.00 0.00 0.00 68 1018.3
20260503021656 41 154 0.0 0.0 0.00 0.00 0.00 67 1018.2
20260503021153 42 154 0.0 0.0 0.00 0.00 0.00 66 1018.4
20260503020650 42 154 0.0 0.0 0.00 0.00 0.00 66 1018.3
20260503020147 42 154 0.0 0.0 0.00 0.00 0.00 65 1018.2
20260503015644 42 154 0.0 0.0 0.00 0.00 0.00 65 1018.2
20260503015141 42 161 0.0 0.0 0.00 0.00 0.00 64 1018.1
20260503014637 42 154 0.0 0.0 0.00 0.00 0.00 66 1018.1
20260503014135 43 154 0.0 0.0 0.00 0.00 0.00 63 1018.2
20260503013632 43 154 0.0 0.0 0.00 0.00 0.00 60 1018.2
20260503013130 44 154 0.0 0.0 0.00 0.00 0.00 59 1018.2
20260503012627 44 154 0.0 0.0 0.00 0.00 0.00 59 1018.2
20260503012123 44 167 0.0 0.0 0.00 0.00 0.00 62 1017.9
20260503011620 44 167 0.0 0.0 0.00 0.00 0.00 63 1018.1
20260503011117 45 167 0.0 0.0 0.00 0.00 0.00 60 1017.9
20260503010613 45 167 0.0 0.0 0.00 0.00 0.00 58 1018.1
20260503010111 46 167 0.0 0.0 0.00 0.00 0.00 61 1018.0
20260503005608 46 167 0.0 0.0 0.00 0.00 0.00 59 1017.9
20260503005105 47 167 0.0 0.0 0.00 0.00 0.00 60 1018.0
20260503004601 48 155 0.0 0.0 0.00 0.00 0.00 58 1017.9
20260503004100 49 138 0.0 0.0 0.00 0.00 0.00 53 1018.2
20260503003556 49 138 0.0 0.0 0.00 0.00 0.00 52 1018.2
20260503003053 50 137 0.0 0.0 0.00 0.00 0.00 48 1018.2
20260503002550 50 137 0.0 0.0 0.00 0.00 0.00 52 1018.2
20260503002047 50 157 0.0 0.0 0.00 0.00 0.00 58 1018.1
20260503001543 50 149 0.0 0.0 0.00 0.00 0.00 56 1017.9
20260503001041 51 148 0.0 0.0 0.00 0.00 0.00 50 1018.2
20260503000538 51 148 0.0 0.0 0.00 0.00 0.00 49 1018.3
20260503000035 51 149 0.0 0.0 0.00 0.00 0.00 48 1018.0
20260502235531 51 149 0.0 0.0 0.00 0.00 0.00 52 1018.3
20260502235029 51 172 0.0 0.0 0.00 0.00 0.00 42 1018.0
20260502234525 52 167 0.0 0.0 0.00 0.00 0.00 46 1018.3
20260502234023 52 202 0.0 0.0 0.00 0.00 0.00 39 1018.1
20260502233518 53 178 0.0 0.0 0.00 0.00 0.00 44 1018.1
20260502233015 53 199 0.9 0.9 0.00 0.00 0.00 40 1018.3
20260502232511 53 169 0.0 0.0 0.00 0.00 0.00 39 1018.4
20260502232008 53 224 0.0 0.9 0.00 0.00 0.00 38 1018.3
20260502231506 53 221 0.9 1.7 0.00 0.00 0.00 37 1018.3
20260502231004 53 206 0.0 0.9 0.00 0.00 0.00 37 1018.2
20260502230501 54 245 0.0 0.0 0.00 0.00 0.00 36 1018.3
20260502230000 55 178 0.0 0.0 0.00 0.00 0.00 40 1018.0
20260502225455 53 324 0.0 0.0 0.00 0.00 0.00 37 1018.4
20260502224952 52 56 0.0 0.0 0.00 0.00 0.00 38 1018.1
20260502224448 52 317 0.9 0.9 0.00 0.00 0.00 37 1018.5
20260502223945 52 247 0.9 0.9 0.00 0.00 0.00 37 1018.3
20260502223443 53 211 1.7 3.5 0.00 0.00 0.00 37 1018.3
20260502222941 54 243 1.7 1.7 0.00 0.00 0.00 36 1018.4
20260502222438 55 248 1.7 1.7 0.00 0.00 0.00 34 1018.4
20260502221934 55 190 0.0 1.7 0.00 0.00 0.00 38 1018.2
20260502221430 55 322 0.0 0.0 0.00 0.00 0.00 38 1018.4
20260502220927 56 159 0.9 1.7 0.00 0.00 0.00 33 1018.4
20260502220423 55 316 0.9 0.9 0.00 0.00 0.00 37 1018.4
20260502215920 55 195 0.0 0.0 0.00 0.00 0.00 35 1018.4
20260502215417 55 339 1.7 3.5 0.00 0.00 0.00 34 1018.4
20260502214914 53 334 1.7 2.6 0.00 0.00 0.00 37 1018.7
20260502214410 54 234 3.5 3.5 0.00 0.00 0.00 36 1018.4
20260502213908 55 296 2.6 3.5 0.00 0.00 0.00 33 1018.5
20260502213405 55 349 3.5 6.1 0.00 0.00 0.00 33 1018.5
20260502212904 55 237 0.9 3.5 0.00 0.00 0.00 36 1018.3
20260502212402 55 252 0.0 2.6 0.00 0.00 0.00 35 1018.4
20260502211859 55 87 3.5 3.5 0.00 0.00 0.00 34 1018.5
20260502211354 55 210 0.9 2.6 0.00 0.00 0.00 35 1018.4
20260502210852 54 269 0.9 1.7 0.00 0.00 0.00 41 1018.5
20260502210349 55 335 1.7 3.5 0.00 0.00 0.00 34 1018.6
20260502205846 54 330 1.7 1.7 0.00 0.00 0.00 41 1018.5
20260502205342 53 268 0.9 1.7 0.00 0.00 0.00 38 1018.7
20260502204839 52 299 0.0 2.6 0.00 0.00 0.00 36 1018.7
20260502204337 51 311 0.0 0.9 0.00 0.00 0.00 40 1018.7